This is the latest recevied weather packets stored in our database for station/object SV9TNF-56. If no packets are shown the sender has not sent any weather packets the latest 10 day(s).
| Time | Temp. | Humidity | Pressure | Rain* | Wind** | Luminosity | Snow |
|---|---|---|---|---|---|---|---|
| 1788625067 | 25.56° C | 51% | 1012.5 hPa | 0 mm | 33.53 m/s, 126° | - | - |
| 1788624767 | 25.56° C | 52% | 1012.5 hPa | 0 mm | 28.16 m/s, 96° | - | - |
| 1788624467 | 25.56° C | 51% | 1012.9 hPa | 0 mm | 22.8 m/s, 210° | - | - |
| 1788624167 | 26.11° C | 52% | 1012.9 hPa | 0 mm | 21.01 m/s, 74° | - | - |
| 1788623867 | 26.11° C | 53% | 1013.2 hPa | 0 mm | 6.26 m/s, 124° | - | - |
| 1788623567 | 26.11° C | 52% | 1013.2 hPa | 0 mm | 16.09 m/s, 120° | - | - |
| 1788623267 | 26.11° C | 51% | 1013.2 hPa | 0 mm | 14.75 m/s, 112° | - | - |
| 1788622967 | 26.11° C | 52% | 1012.9 hPa | 0 mm | 19.67 m/s, 237° | - | - |
| 1788622667 | 26.11° C | 53% | 1013.2 hPa | 0 mm | 10.28 m/s, 212° | - | - |
| 1788622367 | 26.11° C | 55% | 1013.2 hPa | 0 mm | 11.18 m/s, 114° | - | - |
| 1788622066 | 26.11° C | 53% | 1013.2 hPa | 0 mm | 4.92 m/s, 264° | - | - |
| 1788621767 | 25.56° C | 54% | 1013.2 hPa | 0 mm | 12.07 m/s, 150° | - | - |
| 1788621466 | 26.11° C | 53% | 1012.9 hPa | 0 mm | 10.28 m/s, 351° | - | - |
| 1788621166 | 26.11° C | 50% | 1012.9 hPa | 0 mm | 9.83 m/s, 228° | - | - |
| 1788620866 | 26.11° C | 53% | 1013.2 hPa | 0 mm | 19.22 m/s, 195° | - | - |
| 1788620566 | 26.11° C | 53% | 1013.2 hPa | 0 mm | 16.54 m/s, 158° | - | - |
| 1788620266 | 26.11° C | 51% | 1013.2 hPa | 0 mm | 13.86 m/s, 92° | - | - |
| 1788619966 | 26.67° C | 47% | 1013.2 hPa | 0 mm | 22.35 m/s, 280° | - | - |
| 1788619666 | 26.67° C | 47% | 1013.2 hPa | 0 mm | 8.94 m/s, 138° | - | - |
| 1788619365 | 26.67° C | 47% | 1013.6 hPa | 0 mm | 15.2 m/s, 197° | - | - |
| 1788619065 | 26.67° C | 51% | 1013.6 hPa | 0 mm | 7.15 m/s, 306° | - | - |
| 1788618765 | 26.67° C | 51% | 1013.6 hPa | 0 mm | 16.09 m/s, 238° | - | - |
| 1788618466 | 27.22° C | 47% | 1013.6 hPa | 0 mm | 24.59 m/s, 276° | - | - |
| 1788618165 | 26.67° C | 49% | 1013.6 hPa | 0 mm | 22.35 m/s, 282° | - | - |
| 1788617865 | 26.67° C | 51% | 1013.2 hPa | 0 mm | 28.16 m/s, 256° | - | - |
* Rain latest hour (hover to see other rain measurements)
** Current wind speed in m/s (hover to see current wind gust speed)